Weather History for Three Rivers, MI

Change the Weather History Date:

Monday, November 26, 2012

  Actual Average Record
Temperature  
Mean Temperature 32 °F -  
Max Temperature 39 °F 44 °F 62 °F (1960)
Min Temperature 25 °F 29 °F 7 °F (1949)
Degree Days  
Heating Degree Days 33    
Moisture  
Dew Point 25 °F    
Average Humidity 76    
Maximum Humidity 93    
Minimum Humidity 51    
Precipitation  
Precipitation 0.00 in - - ()
Sea Level Pressure  
Sea Level Pressure 30.17 in    
Wind  
Wind Speed 3 mph (NW)    
Max Wind Speed 10 mph    
Max Gust Speed -    
Visibility 8 miles    
Events      
Averages and records for this station are not official NWS values.
T = Trace of Precipitation, MM = Missing Value Source: NWS Daily Summary

Daily Weather History Graph

Daily Weather History Graph

Search for Another Location

Airport:

Trip Planner

Search our weather history database for the weather conditions in past years. The results will help you decide how hot, cold, wet, or windy it might be!

Date:

Astronomy

Nov. 26, 2012 Rise Set
Actual Time 7:45 AM EST 5:13 PM EST
Civil Twilight 7:14 AM EST 5:44 PM EST
Nautical Twilight 6:40 AM EST 6:18 PM EST
Astronomical Twilight 6:07 AM EST 6:52 PM EST
Moon 4:06 PM EST (11/26) 5:54 AM EST (11/26)
Length of Visible Light 10h 29m
Length of Day
9h 27m
Waxing Gibbous, 97% of the Moon is Illuminated
Nov 26
Waxing Gibbous
Nov 28
Full
Dec 6
Last Quarter
Dec 13
New
Dec 20
First Quarter

Hourly Weather History & Observations

Time (EST) Temp. Windchill Dew Point Humidity Pressure Visibility Wind Dir Wind Speed Gust Speed Precip Events Conditions
12:13 AM 29.1 °F 25.4 °F 26.6 °F 90% 30.02 in 7.0 mi SSW 3.5 mph - N/A   Clear
12:34 AM 29.1 °F 25.4 °F 26.8 °F 91% 30.02 in 7.0 mi SSW 3.5 mph - N/A   Clear
12:54 AM 29.5 °F - 27.5 °F 92% 30.02 in 7.0 mi Calm Calm - N/A   Clear
1:13 AM 30.0 °F - 27.5 °F 90% 30.03 in 7.0 mi Calm Calm - N/A   Clear
1:34 AM 30.2 °F - 27.9 °F 91% 30.03 in 7.0 mi Calm Calm - N/A   Mostly Cloudy
1:54 AM 30.2 °F - 27.5 °F 90% 30.03 in 7.0 mi Calm Calm - N/A   Mostly Cloudy
2:13 AM 29.3 °F - 27.0 °F 91% 30.04 in 7.0 mi Calm Calm - N/A   Scattered Clouds
2:34 AM 28.0 °F - 25.7 °F 91% 30.05 in 7.0 mi Calm Calm - N/A   Clear
2:53 AM 26.8 °F - 24.6 °F 92% 30.05 in 5.0 mi Calm Calm - N/A   Clear
3:13 AM 26.8 °F 22.8 °F 24.8 °F 92% 30.06 in 5.0 mi NNW 3.5 mph - N/A   Scattered Clouds
3:34 AM 27.5 °F - 25.5 °F 92% 30.07 in 7.0 mi Calm Calm - N/A   Clear
3:53 AM 25.9 °F - 23.9 °F 92% 30.08 in 7.0 mi Calm Calm - N/A   Mostly Cloudy
4:13 AM 27.9 °F - 26.1 °F 93% 30.07 in 7.0 mi Calm Calm - N/A   Mostly Cloudy
4:34 AM 27.5 °F - 25.3 °F 92% 30.08 in 7.0 mi Calm Calm - N/A   Mostly Cloudy
4:53 AM 28.4 °F - 26.6 °F 93% 30.08 in 7.0 mi Calm Calm - N/A   Mostly Cloudy
5:14 AM 26.6 °F - 24.6 °F 92% 30.09 in 5.0 mi Calm Calm - N/A   Mostly Cloudy
5:34 AM 27.1 °F - 25.3 °F 93% 30.10 in 5.0 mi Calm Calm - N/A   Mostly Cloudy
5:53 AM 27.5 °F - 25.7 °F 93% 30.10 in 4.0 mi Calm Calm - N/A   Overcast
6:14 AM 27.7 °F - 25.9 °F 93% 30.11 in 5.0 mi Calm Calm - N/A   Overcast
6:34 AM 27.9 °F - 26.1 °F 93% 30.11 in 5.0 mi Calm Calm - N/A   Overcast
6:53 AM 28.0 °F - 26.1 °F 92% 30.12 in 5.0 mi Calm Calm - N/A   Overcast
7:14 AM 28.2 °F - 26.2 °F 92% 30.12 in 5.0 mi Calm Calm - N/A   Overcast
7:33 AM 29.3 °F - 27.5 °F 93% 30.13 in 5.0 mi Calm Calm - N/A   Overcast
7:53 AM 28.9 °F 25.2 °F 27.1 °F 93% 30.14 in 5.0 mi SSW 3.5 mph - N/A   Overcast
8:14 AM 29.3 °F 23.2 °F 27.5 °F 93% 30.14 in 5.0 mi SSW 5.8 mph - N/A   Overcast
8:33 AM 29.3 °F 24.3 °F 27.5 °F 93% 30.15 in 5.0 mi SSW 4.6 mph - N/A   Overcast
8:53 AM 30.2 °F 26.7 °F 28.2 °F 92% 30.15 in 5.0 mi SSW 3.5 mph - N/A   Overcast
9:14 AM 31.1 °F 26.4 °F 29.1 °F 92% 30.17 in 5.0 mi SW 4.6 mph - N/A   Overcast
9:33 AM 32.2 °F 28.9 °F 30.0 °F 92% 30.18 in 7.0 mi West 3.5 mph - N/A   Overcast
9:54 AM 33.8 °F - 30.9 °F 89% 30.18 in 10.0 mi Calm Calm - N/A   Overcast
10:14 AM 34.9 °F 29.0 °F 29.1 °F 79% 30.18 in 10.0 mi WNW 6.9 mph - N/A   Overcast
10:33 AM 35.6 °F 29.2 °F 28.2 °F 75% 30.19 in 10.0 mi NW 8.1 mph - N/A   Overcast
10:54 AM 36.1 °F 29.9 °F 27.0 °F 69% 30.20 in 10.0 mi NNW 8.1 mph - N/A   Overcast
11:13 AM 36.1 °F 30.6 °F 26.4 °F 68% 30.20 in 10.0 mi NNW 6.9 mph - N/A   Overcast
11:34 AM 36.5 °F 31.8 °F 25.3 °F 64% 30.19 in 10.0 mi NNW 5.8 mph - N/A   Overcast
11:53 AM 36.9 °F 30.1 °F 23.0 °F 57% 30.19 in 10.0 mi NNW 9.2 mph - N/A   Mostly Cloudy
12:14 PM 37.6 °F 31.0 °F 21.4 °F 52% 30.19 in 10.0 mi West 9.2 mph - N/A   Scattered Clouds
12:34 PM 39.2 °F 33.0 °F 22.5 °F 51% 30.18 in 10.0 mi NW 9.2 mph - N/A   Mostly Cloudy
12:53 PM 36.3 °F 30.8 °F 23.0 °F 59% 30.19 in 10.0 mi North 6.9 mph - N/A   Overcast
1:14 PM 37.4 °F 31.4 °F 24.3 °F 59% 30.19 in 10.0 mi North 8.1 mph - N/A   Overcast
1:34 PM 36.5 °F 31.8 °F 23.2 °F 59% 30.18 in 10.0 mi NNW 5.8 mph - N/A   Overcast
1:53 PM 36.1 °F 30.6 °F 22.3 °F 57% 30.18 in 10.0 mi NNW 6.9 mph - N/A   Overcast
2:14 PM 36.3 °F 28.9 °F 21.7 °F 56% 30.20 in 10.0 mi NNW 10.4 mph - N/A   Overcast
2:33 PM 36.0 °F 29.0 °F 21.9 °F 57% 30.21 in 10.0 mi NW 9.2 mph - N/A   Overcast
2:53 PM 35.6 °F 30.7 °F 21.9 °F 58% 30.21 in 10.0 mi NW 5.8 mph - N/A   Overcast
3:14 PM 35.6 °F 29.9 °F 22.3 °F 58% 30.20 in 10.0 mi NNW 6.9 mph - N/A   Overcast
3:33 PM 35.6 °F 28.6 °F 22.1 °F 58% 30.20 in 10.0 mi NNW 9.2 mph - N/A   Overcast
3:53 PM 35.6 °F 31.7 °F 21.7 °F 57% 30.21 in 10.0 mi NW 4.6 mph - N/A   Overcast
4:14 PM 35.2 °F 29.5 °F 21.7 °F 58% 30.22 in 10.0 mi NW 6.9 mph - N/A   Overcast
4:33 PM 34.7 °F 29.6 °F 21.9 °F 60% 30.22 in 10.0 mi NNW 5.8 mph - N/A   Overcast
4:54 PM 34.7 °F 29.6 °F 22.1 °F 60% 30.22 in 10.0 mi NW 5.8 mph - N/A   Overcast
5:14 PM 34.3 °F - 22.5 °F 62% 30.22 in 10.0 mi Calm Calm - N/A   Overcast
5:33 PM 34.2 °F 30.0 °F 22.6 °F 63% 30.22 in 10.0 mi NW 4.6 mph - N/A   Overcast
5:54 PM 34.2 °F - 23.0 °F 64% 30.22 in 10.0 mi Calm Calm - N/A   Overcast
6:14 PM 34.2 °F - 23.2 °F 64% 30.23 in 10.0 mi Calm Calm - N/A   Overcast
6:33 PM 34.0 °F - 23.4 °F 65% 30.23 in 10.0 mi Calm Calm - N/A   Overcast
6:54 PM 33.8 °F - 23.5 °F 66% 30.24 in 10.0 mi Calm Calm - N/A   Overcast
7:13 PM 33.6 °F 30.6 °F 23.5 °F 67% 30.25 in 10.0 mi North 3.5 mph - N/A   Overcast
7:33 PM 33.4 °F 29.1 °F 23.7 °F 68% 30.26 in 10.0 mi North 4.6 mph - N/A   Overcast
7:54 PM 33.4 °F 30.4 °F 24.3 °F 69% 30.26 in 10.0 mi NNW 3.5 mph - N/A   Overcast
8:13 PM 33.1 °F 28.7 °F 24.4 °F 71% 30.27 in 10.0 mi NNW 4.6 mph - N/A   Overcast
8:33 PM 33.1 °F 28.7 °F 24.3 °F 70% 30.27 in 10.0 mi NNW 4.6 mph - N/A   Overcast
8:54 PM 32.5 °F - 23.9 °F 70% 30.27 in 10.0 mi Calm Calm - N/A   Overcast
9:13 PM 32.4 °F 27.9 °F 23.9 °F 71% 30.28 in 10.0 mi North 4.6 mph - N/A   Overcast
9:34 PM 32.0 °F 27.5 °F 23.9 °F 72% 30.28 in 10.0 mi North 4.6 mph - N/A   Overcast
9:54 PM 32.0 °F 28.7 °F 23.7 °F 71% 30.29 in 10.0 mi North 3.5 mph - N/A   Overcast
10:13 PM 32.0 °F - 23.5 °F 71% 30.29 in 10.0 mi Calm Calm - N/A   Overcast
10:34 PM 32.0 °F - 23.9 °F 72% 30.29 in 10.0 mi Calm Calm - N/A   Overcast
10:53 PM 32.0 °F - 23.7 °F 71% 30.30 in 10.0 mi Calm Calm - N/A   Overcast
11:14 PM 32.0 °F - 23.7 °F 71% 30.30 in 10.0 mi Calm Calm - N/A   Overcast
11:33 PM 32.0 °F - 22.6 °F 68% 30.30 in 10.0 mi Calm Calm - N/A   Overcast
11:53 PM 32.5 °F - 23.7 °F 70% 30.30 in 10.0 mi Calm Calm - N/A   Overcast